Latest Top 10% Owner Trading
SymbolCompany NameInsider NameTitleDateTransationSharePriceAmountFile Date
PFSIPennyMac Financial Services, Inc.KURLAND STANFORD LDirectior 10% Owner2020-10-27Sell31,00052.961,641,9012020-10-29 18:51:08
SCHWSCHWAB CHARLES CORPSCHWAB CHARLES RChairman 10% Owner2020-10-29Option Exercise66,28815.431,022,8242020-10-29 18:13:57
SCHWSCHWAB CHARLES CORPSCHWAB CHARLES RChairman 10% Owner2020-10-29Sell66,28837.742,501,4242020-10-29 18:13:57
CERFCerevel Therapeutics Holdings, Inc.PFIZER INC 10% Owner2020-10-27Buy1,200,00010.0012,000,0002020-10-29 17:44:46
NDPTORTOISE ENERGY INDEPENDENCE FUND, INC.Aristides Capital LLC 10% Owner2020-10-27Buy24,5489.99245,2702020-10-29 17:23:19
CRVLCORVEL CORPCORSTAR HOLDINGS INC 10% Owner2020-10-27Sell75992.0569,8692020-10-29 17:15:33
XPEL, INC.XPEL, Inc.Crumly Richard K.Directior 10% Owner2020-10-27Sell21,40025.56546,9162020-10-29 17:12:21
RVPRETRACTABLE TECHNOLOGIES INCSHAW THOMAS JPresident and CEO 10% Owner2019-12-20Buy11,6271.7420,2372020-10-29 17:08:20
FHTXFoghorn Therapeutics Inc.Flagship Ventures Fund V General Partner LLC 10% Owner2020-10-27Buy150,00016.002,400,0002020-10-29 16:58:22
PSTIPLURISTEM THERAPEUTICS INCCLOVER WOLF CAPITAL - LIMITED PARTNERSHIP 10% Owner2020-10-29Buy20,0009.20184,0002020-10-29 16:27:20
CARGCarGurus, Inc.Steinert LangleyCEO and Chairman 10% Owner2020-10-27Sell25,98620.32528,0362020-10-29 16:17:56
PGNYProgyny, Inc.TPG Group Holdings (SBS) Advisors, Inc. 10% Owner2020-10-27Sell72,56825.581,856,1252020-10-29 16:17:52
PRTYParty City Holdco Inc.SOSIN CLIFFORD 10% Owner2020-10-27Buy1,225,0001.822,229,8202020-10-29 15:44:34
HIOWESTERN ASSET HIGH INCOME OPPORTUNITY FUND INC.Saba Capital Management, L.P. 10% Owner2020-10-28Sell108,3054.89529,6112020-10-29 15:34:33
HIEMiller/Howard High Income Equity FundSaba Capital Management, L.P. 10% Owner2020-10-27Buy104,0196.13637,5722020-10-29 15:31:27
EFTEaton Vance Floating-Rate Income TrustSaba Capital Management, L.P. 10% Owner2020-10-27Buy112,03412.791,432,9152020-10-29 15:26:27
GTEGRAN TIERRA ENERGY INC.GMT CAPITAL CORP 10% Owner2020-10-27Sell103,0000.2020,6002020-10-29 13:43:24
TPLTEXAS PACIFIC LAND TRUSTHORIZON KINETICS ASSET MANAGEMENT LLC 10% Owner2020-10-28Buy14449.496,2932020-10-29 11:48:35
TIPTTIPTREE INC.Barnes Michael GeneExecutive Chairman 10% Owner2020-10-27Buy4,9325.1725,5212020-10-29 10:12:26
EAFGRAFTECH INTERNATIONAL LTDBCP GP LtdDirectior 10% Owner2020-10-26Sell217,8147.081,542,2882020-10-28 20:16:29
EAFGRAFTECH INTERNATIONAL LTDBCP GP LtdDirectior 10% Owner2020-10-26Sell217,8147.081,542,2882020-10-28 20:15:55
EAFGRAFTECH INTERNATIONAL LTDBCP GP LtdDirectior 10% Owner2020-10-26Sell217,8147.081,542,2882020-10-28 20:15:19
EMPW/UEmpower Ltd.GLAZER CAPITAL, LLC 10% Owner2020-10-26Sell3,7899.9537,7012020-10-28 18:11:01
MCFEMcAfee Corp.GIC Private Ltd 10% Owner2020-10-26Sell527,16220.0010,543,2402020-10-28 18:02:04
BTNBALLANTYNE STRONG, INC.Fundamental Global Investors, LLCDirectior 10% Owner2020-10-26Buy7,5651.5811,9802020-10-28 17:58:55
SHAKShake Shack Inc.Flug JeffreyDirectior 10% Owner2020-10-26Sell50,00071.083,554,0182020-10-28 17:58:40
BDTXBlack Diamond Therapeutics, Inc.Versant Venture Capital VI, L.P. 10% Owner2020-10-26Sell8,90333.28296,2932020-10-28 17:58:03
BDTXBlack Diamond Therapeutics, Inc.Bolzon Bradley J PhDDirectior 10% Owner2020-10-26Sell8,90333.28296,2932020-10-28 17:51:12
FSLYFastly, Inc.Bergman ArturChief Architect, Exec. Chair 10% Owner2020-10-26Sell92,30874.326,860,0172020-10-28 17:44:29
RPLAReplay Acquisition Corp.SAFRA EDMONDCo-Chief Executive Officer 10% Owner2020-10-26Buy350,0000.0002020-10-28 17:27:54
RPLAReplay Acquisition Corp.WERTHEIN GREGORIOCo-Chief Executive Officer 10% Owner2020-10-26Sell350,0000.0002020-10-28 17:26:43
LOBLive Oak Bancshares, Inc.MAHAN JAMES S IIIChief Executive Officer 10% Owner2020-10-26Buy154,38434.185,277,4762020-10-28 17:25:07
DSNYDESTINY MEDIA TECHNOLOGIES INCGraber Mark A 10% Owner2020-10-27Buy34,0000.6522,1002020-10-28 17:19:13
TEKKTekkorp Digital Acquisition Corp.Bailey MorrisDirectior 10% Owner2020-10-26Buy2,000,00010.0020,000,0002020-10-28 17:16:18
SURGSurge Holdings, Inc.Cox Kevin BrianCHIEF EXECUTIVE OFFICER 10% Owner2020-10-22Buy126,8000.1012,6802020-10-28 17:14:48
HLIHOULIHAN LOKEY, INC.GOLD IRWINEXECUTIVE CHAIRMAN 10% Owner2020-10-27Sell4,97965.09324,0832020-10-28 16:53:55
DSNYDESTINY MEDIA TECHNOLOGIES INCGraber Mark A 10% Owner2020-10-27Buy34,0000.6522,1002020-10-28 16:46:55
MCFEMcAfee Corp.THOMA BRAVO UGP, LLC 10% Owner2020-10-26Sell408,34018.907,717,6262020-10-28 16:30:10
MCFEMcAfee Corp.Intel Americas, Inc.Directior 10% Owner2020-10-26Sell3,788,53718.9071,603,3522020-10-28 16:30:09
FBCFLAGSTAR BANCORP INCMP Thrift Investments L.P. 10% Owner2020-10-28Sell4,587,64732.70150,000,0002020-10-28 16:21:09
MCFEMcAfee Corp.TPG Group Holdings (SBS) Advisors, Inc. 10% Owner2020-10-26Sell1,293,40318.9024,445,3162020-10-28 16:17:41
WKWORKIVA INCTROM JEFF D.Executive VP & CTO 10% Owner2020-10-26Sell25,00054.781,369,6002020-10-28 16:05:30
EXPIEXP World Holdings, Inc.Sanford Glenn DarrelCEO and Chairman of the Board 10% Owner2020-10-27Sell10,00045.99459,9162020-10-28 16:01:35
ISIGINSIGNIA SYSTEMS INC/MNAIR T INC 10% Owner2020-10-27Sell100,0001.36136,2802020-10-28 12:43:15
FLWS1 800 FLOWERS COM INCMCCANN CHRISTOPHER GCEO and President 10% Owner2020-10-26Option Exercise35,7002.6393,8912020-10-28 11:49:07
FLWS1 800 FLOWERS COM INCMCCANN CHRISTOPHER GCEO and President 10% Owner2020-10-26Sell35,70025.57913,0282020-10-28 11:49:07
TPLTEXAS PACIFIC LAND TRUSTHORIZON KINETICS ASSET MANAGEMENT LLC 10% Owner2020-10-27Buy14463.206,4852020-10-28 11:24:12
BKRBaker Hughes CoGENERAL ELECTRIC CODirectior 10% Owner2020-10-27Option Exercise64,064,2340.0002020-10-28 06:44:58
GHLDGuild Holdings CoMcGarry Strategic Enterprises, LLC 10% Owner2020-10-26Sell532,24014.037,464,6662020-10-27 21:55:53
GHLDGuild Holdings CoMcGarry Mary AnnCHIEF EXECUTIVE OFFICER 10% Owner2020-10-26Sell532,24014.037,464,6662020-10-27 21:54:01
GHLDGuild Holdings CoMcCarthy Partners, LLC 10% Owner2020-10-26Sell4,900,27214.0368,726,3122020-10-27 21:50:10
GHLDGuild Holdings CoDuffy Patrick JosephDirectior 10% Owner2020-10-26Sell4,900,27214.0368,726,3122020-10-27 21:49:05
GHLDGuild Holdings CoSchmidt Terry LynnPRESIDENT 10% Owner2020-10-26Sell287,17414.034,027,6152020-10-27 21:49:03
LMATLEMAITRE VASCULAR INCLeMaitre George WChairman and CEO 10% Owner2020-10-23Option Exercise44,47916.83748,6932020-10-27 20:51:25
BLFSBIOLIFE SOLUTIONS INCVILLIGER WALTER 10% Owner2020-10-23Sell85,88328.682,462,7482020-10-27 20:38:37
SHAKShake Shack Inc.Meyer Daniel HarrisDirectior 10% Owner2020-10-23Sell14,11575.061,059,4082020-10-27 19:29:56
AGMFEDERAL AGRICULTURAL MORTGAGE CORPZIONS BANCORPORATION, NATIONAL ASSOCIATION /UT/ 10% Owner2020-10-26Sell12,20068.46835,1932020-10-27 18:06:38
APTXAptinyx Inc.Bain Capital Life Sciences Investors, LLC 10% Owner2020-10-26Buy3,333,3333.009,999,9992020-10-27 17:07:36
CARGCarGurus, Inc.Steinert LangleyCEO and Chairman 10% Owner2020-10-23Sell25,98621.14549,3442020-10-27 17:04:30
SLPSIMULATIONS PLUS INCWOLTOSZ WALTER SDirectior 10% Owner2020-10-26Sell24,00068.951,654,8002020-10-27 16:44:42
MAMastercard IncMastercard Foundation 10% Owner2020-10-23Sell90,300322.2629,100,0422020-10-27 16:43:57
XPEL, INC.XPEL, Inc.Crumly Richard K.Directior 10% Owner2020-10-23Sell25,00026.44660,9602020-10-27 16:23:49
NDPTORTOISE ENERGY INDEPENDENCE FUND, INC.Aristides Capital LLC 10% Owner2020-10-22Buy38,14710.58403,5482020-10-27 15:13:14
TPLTEXAS PACIFIC LAND TRUSTHORIZON KINETICS ASSET MANAGEMENT LLC 10% Owner2020-10-26Buy14472.986,6222020-10-27 11:54:08
HIOWESTERN ASSET HIGH INCOME OPPORTUNITY FUND INC.Saba Capital Management, L.P. 10% Owner2020-10-23Sell82,2624.96407,6992020-10-27 11:33:08
HIEMiller/Howard High Income Equity FundSaba Capital Management, L.P. 10% Owner2020-10-23Buy35,3266.24220,4342020-10-27 11:27:14
EFTEaton Vance Floating-Rate Income TrustSaba Capital Management, L.P. 10% Owner2020-10-23Buy269,10312.753,429,7662020-10-27 11:23:43
TIPTTIPTREE INC.Barnes Michael GeneExecutive Chairman 10% Owner2020-10-23Buy4,9435.2525,9362020-10-27 10:04:29
WINTWINDTREE THERAPEUTICS INC /DE/Huang JamesDirectior 10% Owner2020-10-23Buy1,0006.676,6662020-10-27 06:02:38
SNAPSnap IncMurphy Robert C.Chief Technology Officer 10% Owner2020-10-22Sell1,500,00037.7656,645,1002020-10-26 20:36:26
NDPTORTOISE ENERGY INDEPENDENCE FUND, INC.Aristides Capital LLC 10% Owner2020-10-22Buy38,14710.58403,5482020-10-26 19:58:52
MNCLMonocle Acquisition CorpGLAZER CAPITAL, LLC 10% Owner2020-10-23Sell5710.355902020-10-26 19:39:26
LOACLongevity Acquisition CorpGLAZER CAPITAL, LLC 10% Owner2020-10-23Sell79,10110.80854,2912020-10-26 19:26:08
DITAMCON DISTRIBUTING COATAYAN CHRISTOPHER HCEO and Chairman 10% Owner2020-10-22Option Exercise9,9000.0002020-10-26 19:16:37
WINTWINDTREE THERAPEUTICS INC /DE/Huang JamesDirectior 10% Owner2020-06-03Buy12,0007.3287,8682020-10-26 18:26:21
PSPluralsight, Inc.Skonnard AaronCo-Founder, CEO, & Chairman 10% Owner2020-10-23Option Exercise83,0630.0002020-10-26 17:47:39
POAIPredictive Oncology Inc.Schwartz Carl I.Chief Executive Officer 10% Owner2020-10-22Sell6400.855442020-10-26 17:38:05
XPEL, INC.XPEL, Inc.Adams MarkDirectior 10% Owner2020-10-22Sell1,69826.5145,0162020-10-26 16:46:20
GTEGRAN TIERRA ENERGY INC.GMT CAPITAL CORP 10% Owner2020-10-22Sell803,0000.21168,6302020-10-26 16:40:54
BTNBALLANTYNE STRONG, INC.Fundamental Global Investors, LLCDirectior 10% Owner2020-10-22Buy5,6901.538,7032020-10-26 16:40:37
tzooTRAVELZOOAZZURRO CAPITAL INC 10% Owner2020-10-22Buy50,0007.80390,0002020-10-26 16:10:48
VLGEAVILLAGE SUPER MARKET INCSUMAS WILLIAMExecutive Vice President 10% Owner2020-10-13Sell4,76624.02114,4962020-10-26 14:27:02
TPLTEXAS PACIFIC LAND TRUSTHORIZON KINETICS ASSET MANAGEMENT LLC 10% Owner2020-10-23Buy14477.986,6922020-10-26 11:49:51
TCONTracon Pharmaceuticals, Inc.Opaleye Management Inc. 10% Owner2020-10-21Buy8,6564.4038,0602020-10-23 21:30:09
EAFGRAFTECH INTERNATIONAL LTDBCP GP LtdDirectior 10% Owner2020-10-21Sell321,8357.142,299,2732020-10-23 20:57:23
EAFGRAFTECH INTERNATIONAL LTDBCP GP LtdDirectior 10% Owner2020-10-21Sell321,8357.142,299,2732020-10-23 20:55:54
EAFGRAFTECH INTERNATIONAL LTDBCP GP LtdDirectior 10% Owner2020-10-21Sell321,8357.142,299,2732020-10-23 20:54:39
BLFSBIOLIFE SOLUTIONS INCVILLIGER WALTER 10% Owner2020-10-21Sell91,00128.542,596,8982020-10-23 20:30:18
GPVGREENPOWER MOTOR Co INC.Atkinson FraserCEO and Chairman 10% Owner2020-10-22Buy5,00012.5562,7502020-10-23 20:20:00
STXSeagate Technology plcHaggart Dylan G.Directior 10% Owner2020-10-21Option Exercise5,5790.0002020-10-23 20:10:24
EMPW/UEmpower Ltd.GLAZER CAPITAL, LLC 10% Owner2020-10-21Sell1009.989982020-10-23 19:47:31
PINSPINTEREST, INC.Silbermann BenjaminChairman, President, CEO, Co-F 10% Owner2020-10-21Sell52,60049.842,621,5302020-10-23 19:15:52
AGMFEDERAL AGRICULTURAL MORTGAGE CORPZIONS BANCORPORATION, NATIONAL ASSOCIATION /UT/ 10% Owner2020-10-22Sell19,82969.281,373,6672020-10-23 19:07:14
SFIXStitch Fix, Inc.Lake KatrinaChief Executive Officer 10% Owner2020-10-21Sell109,92535.143,862,6452020-10-23 18:33:56
TYMETYME TECHNOLOGIES, INC.Hoffman SteveChief Executive Officer 10% Owner2020-10-21Sell37,8420.9837,0852020-10-23 18:30:55
DSNYDESTINY MEDIA TECHNOLOGIES INCGraber Mark A 10% Owner2020-10-22Buy132,2740.6383,3472020-10-23 17:46:55
SELBSELECTA BIOSCIENCES INCSPRINGER TIMOTHY ADirectior 10% Owner2020-10-21Buy3,644,6922.629,555,9072020-10-23 17:12:29
CRVLCORVEL CORPCORSTAR HOLDINGS INC 10% Owner2020-10-21Sell8,89091.30811,6182020-10-23 17:12:19
IMHIMPAC MORTGAGE HOLDINGS INCAKIN THOMAS B 10% Owner2020-10-22Sell271,9251.52412,2032020-10-23 16:39:37
XPEL, INC.XPEL, Inc.Crumly Richard K.Directior 10% Owner2020-10-21Sell32,00026.74855,5602020-10-23 16:33:23
PGNYProgyny, Inc.TPG Group Holdings (SBS) Advisors, Inc. 10% Owner2020-10-21Sell68,00327.181,848,5482020-10-23 16:29:30
PGNYProgyny, Inc.TPG Group Holdings (SBS) Advisors, Inc. 10% Owner2020-10-20Sell41,89327.491,151,5172020-10-23 16:26:49
WKWORKIVA INCVANDERPLOEG MARTIN J.President & CEO 10% Owner2020-10-21Sell25,00055.251,381,3382020-10-23 16:15:19
CARGCarGurus, Inc.Steinert LangleyCEO and Chairman 10% Owner2020-10-21Sell25,98620.59535,0522020-10-23 16:08:17
CDAKCodiak BioSciences, Inc.Alaska Permanent Fund Corp 10% Owner2020-10-16Buy235,00015.003,525,0002020-10-23 14:38:15
NONEBlackstone Private Credit FundBlackstone BDC Holdings LLC 10% Owner2020-10-21Buy2,00025.0050,0002020-10-23 12:33:24
TPLTEXAS PACIFIC LAND TRUSTHORIZON KINETICS ASSET MANAGEMENT LLC 10% Owner2020-10-22Buy14479.176,7082020-10-23 12:28:12
HIEMiller/Howard High Income Equity FundSaba Capital Management, L.P. 10% Owner2020-10-21Buy59,0236.26369,4842020-10-23 10:14:14
EFTEaton Vance Floating-Rate Income TrustSaba Capital Management, L.P. 10% Owner2020-10-21Buy263,94412.783,372,7672020-10-23 10:08:30
TIPTTIPTREE INC.Barnes Michael GeneExecutive Chairman 10% Owner2020-10-21Buy4,9545.3226,3452020-10-23 10:02:52
BKRBaker Hughes CoGENERAL ELECTRIC CODirectior 10% Owner2020-10-22Sell27,988,18314.91417,303,8082020-10-23 08:05:51
EAREargo, Inc.Longitude Venture Partners IV, L.P. 10% Owner2020-10-20Buy233,33318.004,199,9942020-10-22 20:24:46
EAREargo, Inc.Sonsini Peter W. 10% Owner2020-10-20Buy311,11118.005,599,9982020-10-22 19:55:58
EAREargo, Inc.SANDELL SCOTT D 10% Owner2020-10-20Buy311,11118.005,599,9982020-10-22 19:54:43
EAREargo, Inc.MAKOWER JOSHUADirectior 10% Owner2020-10-20Buy311,11118.005,599,9982020-10-22 19:53:44
SAFTSAFETY INSURANCE GROUP INCSRB Corp 10% Owner2020-10-20Buy10068.006,8002020-10-22 19:53:40
EAREargo, Inc.Tammenoms Bakker JulietDirectior 10% Owner2020-10-20Buy233,33318.004,199,9942020-10-22 19:53:17
EAREargo, Inc.Makhzoumi Mohamad 10% Owner2020-10-20Buy311,11118.005,599,9982020-10-22 19:52:42
EAREargo, Inc.Florence Anthony A. Jr. 10% Owner2020-10-20Buy311,11118.005,599,9982020-10-22 19:51:00
EAREargo, Inc.BASKETT FOREST 10% Owner2020-10-20Buy311,11118.005,599,9982020-10-22 19:50:00
EAREargo, Inc.New Enterprise Associates 15, L.P. 10% Owner2020-10-20Buy311,11118.005,599,9982020-10-22 19:48:51
LGCLegacy Acquisition Corp.GLAZER CAPITAL, LLC 10% Owner2020-10-20Sell10,04010.45104,9182020-10-22 19:33:01
ISIGINSIGNIA SYSTEMS INC/MNFunicular Fund, LP 10% Owner2020-10-21Sell997,7991.231,223,7462020-10-22 19:31:11
MAMastercard IncMastercard Foundation 10% Owner2020-10-20Sell90,300333.4230,107,7962020-10-22 19:26:55
BUDZWEED, INC.BREEN NICOLE MSecretary/Treasurer 10% Owner2020-10-14Sell28,5570.215,8612020-10-22 19:20:31
EAREargo, Inc.Gilde Healthcare Holding B.V. 10% Owner2020-10-20Buy233,33318.004,199,9942020-10-22 19:10:02
BTWNUBridgetown Holdings LtdBridgetown LLC/Cayman 10% Owner2020-10-20Buy5,000,00010.0050,000,0002020-10-22 18:45:25
RSSSResearch Solutions, Inc.BRISTOL INVESTMENT FUND LTD 10% Owner2020-10-21Sell71,3742.30163,8702020-10-22 18:17:16
RVLVRevolve Group, Inc.Mente MichaelCO-CHIEF EXECUTIVE OFFICER 10% Owner2020-10-20Sell100,00019.851,985,2002020-10-22 18:13:09
HLXAHelix Acquisition CorpChen BihuaCEO and Chairman 10% Owner2020-10-22Buy430,00010.004,300,0002020-10-22 17:10:03
HLXAHelix Acquisition CorpHelix Holdings LLCDirectior 10% Owner2020-10-22Buy430,00010.004,300,0002020-10-22 17:08:24
XPEL, INC.XPEL, Inc.Adams MarkDirectior 10% Owner2020-10-20Sell12,60026.97339,7692020-10-22 17:03:21
CTAMA. M. Castle & Co.Mellin JonathanDirectior 10% Owner2020-10-21Buy138,9620.2636,1302020-10-22 17:02:55
EAREargo, Inc.Novo Holdings A/S 10% Owner2020-10-20Buy150,00018.002,700,0002020-10-22 16:32:47
ALGSAligos Therapeutics, Inc.Novo Holdings A/S 10% Owner2020-10-20Buy200,00015.003,000,0002020-10-22 16:31:24
PSIXPOWER SOLUTIONS INTERNATIONAL, INC.Winemaster Gary S 10% Owner2020-10-12Sell344.321472020-10-22 16:30:09
RADIRadius Global Infrastructure, Inc.DKLDO IV Trading Subsidiary LP 10% Owner2020-10-20Buy250,0008.002,000,0002020-10-22 16:24:54
EXPIEXP World Holdings, Inc.Sanford Glenn DarrelCEO and Chairman of the Board 10% Owner2020-10-20Sell10,00056.77567,6662020-10-22 16:02:20
SFBCSound Financial Bancorp, Inc.STILWELL JOSEPH 10% Owner2020-10-05Buy5,00029.82149,0972020-10-22 14:33:31
TPLTEXAS PACIFIC LAND TRUSTHORIZON KINETICS ASSET MANAGEMENT LLC 10% Owner2020-10-21Buy14463.056,4832020-10-22 11:57:01
FLWS1 800 FLOWERS COM INCMCCANN CHRISTOPHER GCEO and President 10% Owner2020-10-20Option Exercise17,8502.6346,9462020-10-22 11:51:52
FLWS1 800 FLOWERS COM INCMCCANN CHRISTOPHER GCEO and President 10% Owner2020-10-20Sell17,85026.81478,5592020-10-22 11:51:52
JCTCFJEWETT CAMERON TRADING CO LTDOREGON COMMUNITY FOUNDATION 10% Owner2020-10-20Sell66410.336,8592020-10-21 20:56:53
TMTSUSpartacus Acquisition CorpSUBIN NEIL S 10% Owner2020-10-19Buy500,00010.005,000,0002020-10-21 20:55:16
MSMORGAN STANLEYMITSUBISHI UFJ FINANCIAL GROUP INC 10% Owner2013-10-28Sell1,020,1210.97986,9862020-10-21 20:44:06
MSMORGAN STANLEYMITSUBISHI UFJ FINANCIAL GROUP INC 10% Owner2013-10-28Sell1,49754.9682,2792020-10-21 20:42:47
MSMORGAN STANLEYMITSUBISHI UFJ FINANCIAL GROUP INC 10% Owner2013-10-28Buy1,60644.4171,3232020-10-21 20:42:47
MSMORGAN STANLEYMITSUBISHI UFJ FINANCIAL GROUP INC 10% Owner2013-10-28Sell3,43450.59173,7212020-10-21 20:41:17
MSMORGAN STANLEYMITSUBISHI UFJ FINANCIAL GROUP INC 10% Owner2013-10-28Buy2,86549.14140,7892020-10-21 20:41:17
GSHDGoosehead Insurance, Inc.Jones Mark EvanCEO 10% Owner2020-10-15Sell29,571102.793,039,5042020-10-21 19:45:52
GSHDGoosehead Insurance, Inc.Jones Mark EvanCEO 10% Owner2020-10-14Sell15,93798.821,574,8682020-10-21 19:43:31
GSHDGoosehead Insurance, Inc.Jones Robyn Mary ElizabethDirectior 10% Owner2020-10-19Sell25,089110.722,777,9192020-10-21 19:41:24
GSHDGoosehead Insurance, Inc.Jones Mark EvanCEO 10% Owner2020-10-19Sell25,089110.722,777,9192020-10-21 19:41:09
GSHDGoosehead Insurance, Inc.Mark & Robyn Jones Descendants Trust 2014 10% Owner2020-10-19Sell25,089110.722,777,9192020-10-21 19:40:57
TWLOTWILIO INCLawson JeffChief Executive Officer 10% Owner2020-10-19Sell49,500333.6916,517,6452020-10-21 19:29:04
GSHDGoosehead Insurance, Inc.Jones Mark EvanCEO 10% Owner2020-10-16Sell21,211106.562,260,2652020-10-21 19:28:58
GSHDGoosehead Insurance, Inc.Jones Robyn Mary ElizabethDirectior 10% Owner2020-10-16Sell21,211106.562,260,2652020-10-21 19:28:46
GSHDGoosehead Insurance, Inc.Mark & Robyn Jones Descendants Trust 2014 10% Owner2020-10-16Sell21,211106.562,260,2652020-10-21 19:27:30
AGMFEDERAL AGRICULTURAL MORTGAGE CORPZIONS BANCORPORATION, NATIONAL ASSOCIATION /UT/ 10% Owner2020-10-20Sell18,72269.171,294,9692020-10-21 19:04:31
SDGRSchrodinger, Inc.SHAW DAVID E 10% Owner2020-10-19Sell474,45356.6326,870,1202020-10-21 19:02:03
BTNBALLANTYNE STRONG, INC.Fundamental Global Investors, LLCDirectior 10% Owner2020-10-19Buy8,9321.5513,8242020-10-21 17:50:45
NDPTORTOISE ENERGY INDEPENDENCE FUND, INC.Aristides Capital LLC 10% Owner2020-10-19Buy5,46610.4557,1352020-10-21 17:44:34
FSLYFastly, Inc.Bergman ArturChief Architect, Exec. Chair 10% Owner2020-10-19Sell92,30883.647,720,7682020-10-21 17:20:23
XPEL, INC.XPEL, Inc.Crumly Richard K.Directior 10% Owner2020-10-19Sell32,00026.90860,7602020-10-21 17:07:16
AMCIAMCI Acquisition Corp.GLAZER CAPITAL, LLC 10% Owner2020-10-19Sell25,00010.35258,7502020-10-21 16:21:22
PGNYProgyny, Inc.TPG Group Holdings (SBS) Advisors, Inc. 10% Owner2020-10-19Sell72,76827.612,009,2272020-10-21 16:18:01
ALTRAltair Engineering Inc.Scapa James RalphChief Executive Officer 10% Owner2020-10-19Sell13,51046.29625,3912020-10-21 16:13:09
CARGCarGurus, Inc.Steinert LangleyCEO and Chairman 10% Owner2020-10-19Sell25,98621.46557,6032020-10-21 16:06:02
ALTRAltair Engineering Inc.James R. Scapa Declaration of Trust 10% Owner2020-10-19Sell9,12646.29422,4522020-10-21 15:59:16
ALTRAltair Engineering Inc.JRS Investments LLC 10% Owner2020-10-19Sell4,38446.29202,9402020-10-21 15:58:39
KTELKonaTel, Inc.McEwen David SChairman, President and CEO 10% Owner2020-10-20Buy2,000,0000.10200,0002020-10-21 15:09:17
MXMAGNACHIP SEMICONDUCTOR CorpBrigade Leveraged Capital Structures Fund Ltd. 10% Owner2020-10-19Sell425,00014.105,992,5002020-10-21 13:48:51
EFTEaton Vance Floating-Rate Income TrustSaba Capital Management, L.P. 10% Owner2020-10-19Buy285,52812.773,646,0222020-10-21 13:12:59
VTAInvesco Dynamic Credit Opportunities FundSaba Capital Management, L.P. 10% Owner2020-10-19Buy602,0729.355,631,0322020-10-21 13:01:31
TPLTEXAS PACIFIC LAND TRUSTHORIZON KINETICS ASSET MANAGEMENT LLC 10% Owner2020-10-20Buy14469.986,5802020-10-21 12:19:36
LEGHLegacy Housing CorpHodgson Curtis DrewDirectior 10% Owner2020-10-14Sell8,30515.83131,4902020-10-21 11:02:45
TIPTTIPTREE INC.Barnes Michael GeneExecutive Chairman 10% Owner2020-10-19Buy4,9545.2826,1552020-10-21 10:14:35
COSMCosmos Holdings Inc.Siokas GrigoriosChief Executive Officer 10% Owner2020-10-19Sell7,1000.00282020-10-21 09:20:14
EAFGRAFTECH INTERNATIONAL LTDBCP GP LtdDirectior 10% Owner2020-10-16Sell338,1087.132,411,5712020-10-20 21:14:09
EAFGRAFTECH INTERNATIONAL LTDBCP GP LtdDirectior 10% Owner2020-10-16Sell338,1087.132,411,5712020-10-20 21:12:32
EAFGRAFTECH INTERNATIONAL LTDBCP GP LtdDirectior 10% Owner2020-10-16Sell338,1087.132,411,5712020-10-20 21:11:06
LOVELovesac CoHEYER ANDREW RDirectior 10% Owner2020-10-16Sell173,54735.386,140,0942020-10-20 21:06:22
LOVELovesac CoHEYER ANDREW RDirectior 10% Owner2020-10-14Sell145,99436.085,267,2012020-10-20 21:04:56
BDTXBlack Diamond Therapeutics, Inc.Versant Venture Capital VI, L.P. 10% Owner2020-10-15Sell15,74633.44526,5292020-10-20 20:09:32
CDAKCodiak BioSciences, Inc.ARCH Venture Fund VIII, L.P. 10% Owner2020-10-16Buy235,00015.003,525,0002020-10-20 20:07:28
CDAKCodiak BioSciences, Inc.Flagship Ventures Fund V General Partner LLC 10% Owner2020-10-16Buy165,00015.002,475,0002020-10-20 20:05:15
BDTXBlack Diamond Therapeutics, Inc.Bolzon Bradley J PhDDirectior 10% Owner2020-10-15Sell15,74633.44526,5292020-10-20 20:03:15
TARSTarsus Pharmaceuticals, Inc.Frazier Life Sciences IX, L.P. 10% Owner2020-10-20Buy312,50016.005,000,0002020-10-20 20:01:18
TARSTarsus Pharmaceuticals, Inc.Horowitz Limited Partnership VIII 10% Owner2020-10-20Buy184,37516.002,950,0002020-10-20 19:59:46
TARSTarsus Pharmaceuticals, Inc.Vivo Capital IX, LLC 10% Owner2020-10-20Buy250,00016.004,000,0002020-10-20 19:58:22
TARSTarsus Pharmaceuticals, Inc.Tester Jason E.Directior 10% Owner2020-10-20Buy171,87516.002,750,0002020-10-20 19:56:09
FTACFintech Acquisition Corp. IIIFinTech Masala Advisors, LLC 10% Owner2020-10-16Option Exercise4,245,1300.0002020-10-20 19:45:13
FTACFintech Acquisition Corp. IIICOHEN DANIEL G 10% Owner2020-10-16Option Exercise2,182,6600.0002020-10-20 19:44:50
FTACFintech Acquisition Corp. IIICohen Sponsor Interests III, LLC 10% Owner2020-10-16Option Exercise3,273,9890.0002020-10-20 19:44:20
FTACFintech Acquisition Corp. IIICOHEN BETSY Z 10% Owner2020-10-16Option Exercise1,091,3300.0002020-10-20 19:43:49
SIBNSI-BONE, Inc.Freund John GordonDirectior 10% Owner2020-10-19Sell190,05322.004,181,1662020-10-20 18:27:50
TLRYTilray, Inc.Kennedy BrendanPresident and CEO 10% Owner2020-10-16Sell400,0005.602,238,5602020-10-20 18:26:33
GSHDGoosehead Insurance, Inc.Jones Robyn Mary ElizabethDirectior 10% Owner2020-10-15Sell29,571102.793,039,5042020-10-20 18:18:13
GSHDGoosehead Insurance, Inc.Jones Mark EvanCEO 10% Owner2020-10-15Sell29,571102.793,039,5042020-10-20 18:17:49
GSHDGoosehead Insurance, Inc.Mark & Robyn Jones Descendants Trust 2014 10% Owner2020-10-15Sell29,571102.793,039,5042020-10-20 18:17:22